Flag for Iran Weather past 2 weeks in Esfahãn, Iran

Now
21 °F

Ice fog.


Feels Like: 21 °F
Forecast: 28 / 49 °F
Wind: No wind

Location: Esfahan

Current Time: Dec 18, 2014 at 6:25:08 AM

Latest Report: Dec 18, 2014 at 6:00 AM


Visibility: 3 mi

Pressure: 30.24 "Hg

Humidity: 93%

Dew point: 19 °F

Location of EsfahãnLocation

Historic Weather in Esfahãn — Graph

°F

Esfahãn temperature yesterday

Maximum temperature yesterday: 54 °F (at 3:00 PM)
Minimum temperature yesterday: 32 °F (at 3:00 AM)
Average temperature yesterday: 42 °F

Past Weeks' High & Low Weather Summary

 TemperatureHumidityPressure
High61 °F (Dec 11, 2:30 PM)100% (Dec 5, 7:30 AM)30.45 "Hg (Dec 5, 7:30 AM)
Low19 °F (Dec 15, 7:30 AM)25% (Dec 15, 3:00 PM)30.07 "Hg (Dec 11, 5:00 AM)
Average40 °F59%30.27 "Hg
* Reported Dec 3 5:30 AM — Dec 18 5:30 AM, Esfahãn, Weather by CustomWeather, © 2014

Note: Actual official high and low records may vary slightly from our data, if they occured in-between our weather recording intervals... More about our weather records

Advertising

Esfahãn weather history for previous 24 hours

 ConditionsComfort  
Time TempWeatherWind HumidityBarometerVisibility
5:30 AM
Dec 18
23 °FIce fog.No wind86%30.24 "Hg3 mi
4:30 AM25 °FIce fog.No wind86%30.24 "Hg3 mi
3:30 AM28 °FClear.5 mph80%30.24 "Hg10 mi
2:30 AM28 °FClear.No wind80%30.27 "Hg10 mi
1:30 AM30 °FClear.7 mph80%30.27 "Hg10 mi
1:00 AM32 °FClear.5 mph80%30.24 "Hg10 mi
12:30 AM36 °FClear.7 mph70%30.24 "Hg10 mi
12:00 AM37 °FClear.12 mph65%30.24 "Hg10 mi
11:30 PM
Dec 17
39 °FClear.12 mph61%30.24 "Hg10 mi
10:30 PM41 °FPassing clouds.12 mph66%30.27 "HgN/A
10:00 PM41 °FPassing clouds.9 mph66%30.27 "HgN/A
9:30 PM43 °FPassing clouds.7 mph57%30.24 "HgN/A
9:00 PM41 °FPassing clouds.5 mph61%30.24 "HgN/A
8:30 PM41 °FPassing clouds.7 mph61%30.24 "HgN/A
8:00 PM41 °FPassing clouds.5 mph57%30.24 "HgN/A
7:30 PM43 °FPassing clouds.7 mph49%30.21 "HgN/A
7:00 PM43 °FPassing clouds.7 mph49%30.21 "HgN/A
6:30 PM41 °FPassing clouds.9 mph49%30.18 "HgN/A
6:00 PM43 °FPassing clouds.5 mph49%30.18 "HgN/A
5:30 PM46 °FPassing clouds.No wind43%30.18 "HgN/A
5:00 PM46 °FPassing clouds.No wind43%30.15 "HgN/A
4:30 PM52 °FPassing clouds.No wind35%30.15 "HgN/A
4:00 PM52 °FPassing clouds.5 mph35%30.15 "HgN/A
3:30 PM54 °FPassing clouds.No wind33%30.15 "HgN/A
3:00 PM54 °FPassing clouds.7 mph33%30.15 "HgN/A
2:30 PM52 °FPassing clouds.7 mph35%30.15 "HgN/A
1:30 PM52 °FPassing clouds.7 mph38%30.18 "HgN/A
1:00 PM52 °FPassing clouds.9 mph38%30.18 "HgN/A
12:30 PM52 °FPassing clouds.9 mph41%30.21 "HgN/A
12:00 PM50 °FPassing clouds.9 mph47%30.24 "Hg5 mi
11:30 AM50 °FScattered clouds.7 mph50%30.24 "Hg5 mi
10:30 AM46 °FScattered clouds.14 mph66%30.27 "Hg4 mi
10:00 AM43 °FPartly sunny.12 mph71%30.27 "Hg4 mi
9:30 AM39 °FPartly sunny.9 mph81%30.27 "Hg4 mi
9:00 AM39 °FPartly sunny.12 mph81%30.27 "Hg4 mi
8:30 AM37 °FFog.7 mph87%30.27 "Hg2 mi
8:00 AM36 °FFog.7 mph87%30.24 "Hg2 mi
7:30 AM36 °FFog.7 mph93%30.24 "Hg2 mi
7:00 AM32 °FIce fog.No wind93%30.24 "Hg2 mi
6:30 AM36 °FFog.No wind93%30.21 "Hg2 mi
Weather by CustomWeather, © 2014

See weather overviewHow to use our weather pages